Погода в Батьёво

Украина / Закарпатская область     48°21′42″N   22°23′23″E
темп.,
°C
ветер,
м/с
пор.,
м/с
влажн.,
%
обл.,
%
осадки,
мм/ч
давл.,
гПа
погр.,
м
14 мая, пт
пт1400:00+12юв2494100 0.7 1004115
03:00+11ююв3997100 1.0 1004301
06:00+11ю4897100 0.9 1004393
09:00+12ююз4792100 1.0 1005628
12:00+12ююз5787100 0.2 1007737
15:00+14юз7880100 1.1 1007992
18:00+12ююз4788100 0.2 1008552
21:00+11ююз2391100 0.3 1009127
15 мая, сб
сб1500:00+10ю2292100 0.0 101055
03:00+9ю119590 0.0 101111
06:00+9юв239599 0.0 1011106
09:00+11юв3490100 0.0 1013356
12:00+15юв237581 0.0 1012952
15:00+16юв227098 0.1 1011787
18:00+18юв226584 0.0 10101062
21:00+14в2279100 0.0 100916
16 мая, вс
вс1600:00+11в33865 0.0 100925
03:00+10вюв2289100 0.0 100918
06:00+10вюв3490100 0.0 100861
09:00+14ю3583100 0.2 1009309
12:00+16юз4579100 0.1 1009855
15:00+15ююз3584100 1.1 1008706
18:00+14зюз3492100 1.6 1008312
21:00+13юз239390 2.4 100874
17 мая, пн
пн1700:00+10ююз23969 0.1 100938
03:00+8ю229776 0.1 101015
06:00+9ююв229683 0.0 101080
09:00+11юв339096 0.0 1011265
12:00+16вюв3374100 0.0 1010877
15:00+18ююз2363100 0.1 10091439
18:00+14юз4790100 1.3 1009224
21:00+12св0198100 7.8 100919
18 мая, вт
вт1800:00+12св0198100 4.6 100921
03:00+11сз2297100 5.2 100983
06:00+11зсз2498100 0.1 1009116
09:00+12зсз3495100 0.4 1010311
12:00+14зсз2485100 2.0 1010246
15:00+14зсз348499 5.1 1010389
18:00+11зсз1393100 0.5 1011166
21:00+11вюв1193100 0.8 101214